Location: �meringes
(46.2238°N, 4.6707°E)
Time: 22:33:13
(UTC+00:00)

Daily predictions for brighter satellites

Satellite Brightness Start Highest point End
(mag) Time Altitude Azimuth Time Altitude Azimuth Time Altitude Azimuth
BREEZE-M (TANK) 4.4 17:34:51 10° WNW 17:39:15 80° NNE 17:59:33 10° ESE
Cosmos 2263 Rocket 3.0 17:52:34 10° SW 17:58:02 56° WNW 18:03:34 10° NNE
USA 116 4.4 17:57:12 10° NNE 18:00:35 32° E 18:04:20 10° SSE
Cosmos 1939 Rocket 3.2 17:57:40 10° S 18:01:48 78° WSW 18:05:59 10° NNW
Cosmos 1842 4.0 17:58:30 10° NNW 18:02:20 60° W 18:06:09 10° S
Cosmos 1844 Rocket 3.2 17:57:31 10° S 18:02:36 38° ESE 18:07:43 10° NE
Cosmos 372 Rocket 4.0 17:59:15 10° S 18:04:26 67° ESE 18:09:38 10° NNE
Cosmos 1707 2.8 18:01:32 10° N 18:05:18 52° ENE 18:09:02 10° SSE
NOSS 3-2 (C) 4.3 17:59:16 10° NW 18:06:30 55° NE 18:14:41 10° ESE
CZ-2C R/B 3.6 18:05:09 10° SW 18:06:39 12° SSW 18:08:07 10° S
Cosmos 1844 4.3 18:04:57 10° S 18:10:03 35° ESE 18:15:08 10° NE
ISS -3.0 18:07:27 10° W 18:10:44 52° NNW 18:14:04 10° ENE
NOSS 3-4 (A) 4.4 18:07:04 10° SSE 18:11:28 22° ESE 18:16:03 10° ENE
NOSS 3-4 (C) 4.4 18:07:13 10° SSE 18:11:35 22° ESE 18:16:08 10° ENE
USA 186 3.7 18:11:14 10° E 18:13:03 14° ENE 18:14:52 10° NNE
Meteor 1-12 Rocket 4.4 18:08:12 10° S 18:13:55 56° E 18:19:34 10° NNE
Cosmos 1300 Rocket 3.7 18:14:58 10° S 18:19:15 55° E 18:23:36 10° NNE
Okean 1 Rocket 4.3 18:19:14 10° SE 18:22:39 22° E 18:26:05 10° NE
Sich 1 Rocket 3.7 18:19:04 10° S 18:23:35 84° WNW 18:28:11 10° N
CENTAUR R/B 3.3 18:17:42 10° NW 18:25:38 65° NE 18:34:22 10° SE
Cosmos 2298 Rocket 4.0 18:20:26 10° S 18:25:43 69° ESE 18:31:02 10° NNE
Cosmos 1833 Rocket 4.2 18:22:46 10° N 18:26:50 20° NE 18:30:12 12° E
CSL-04 Debris 4.1 18:24:37 10° SSE 18:30:00 79° ENE 18:35:25 10° NNW
CSL-04 Rocket 3.7 18:26:31 10° SSE 18:31:57 78° ENE 18:37:30 10° NNW
ATLAS 2AS CENTAUR R/B 3.5 18:26:47 10° S 18:33:47 36° ESE 18:40:48 10° NE
Okean 2 Rocket 3.0 18:29:18 10° S 18:33:47 80° E 18:38:16 10° N
YAOGAN 1 3.0 18:30:17 10° S 18:34:35 67° W 18:38:55 10° NNW
Cosmos 1025 Rocket 3.0 18:30:20 10° N 18:34:45 79° E 18:39:08 10° SSE
ATLAS 3B R/B 3.6 18:31:34 10° NNW 18:37:41 34° NE 18:42:35 16° E
SWAS 4.4 18:36:15 10° NNW 18:40:33 73° ENE 18:44:39 11° SE
Abrixas rocket 1.7 18:37:53 10° WNW 18:40:44 85° N 18:42:11 26° ESE
Cosmos 1513 Rocket 4.5 18:35:04 10° S 18:41:19 90° E 18:47:30 10° N
CREW DRAGON DEMO-1 DEB 2.8 18:39:42 10° WNW 18:42:44 71° NNE 18:44:16 26° ESE
Cosmos 1536 Rocket 3.5 18:40:04 10° N 18:44:32 74° E 18:49:00 10° SSE
Cosmos 1125 Rocket 3.5 18:41:07 10° S 18:46:21 65° ESE 18:51:38 10° NNE
SJ-6B 3.6 18:48:31 23° ESE 18:49:55 30° ENE 18:53:17 10° N
CZ-4 R/B 3.2 18:48:25 10° SSW 18:52:16 35° W 18:56:07 10° NNW
SJ-11-01 4.5 18:48:32 10° S 18:53:13 75° WSW 18:57:56 10° NNW
Cosmos 2150 Rocket 4.3 18:47:54 10° SSW 18:53:18 78° WNW 18:58:47 10° NNE
CZ-2C R/B 3.7 18:48:59 10° S 18:54:18 64° W 18:59:56 10° NNW
Cosmos 1464 Rocket 4.2 18:48:34 10° SSW 18:54:42 76° W 19:00:55 10° N
USA 238 DEB 4.1 18:47:45 10° NW 18:54:57 72° SW 19:02:25 10° SSE
USA 238 4.1 18:47:51 10° NW 18:55:04 72° SW 19:02:32 10° SSE
Cosmos 1674 2.6 18:53:04 10° N 18:56:55 67° E 19:00:17 13° SSE
Cosmos 2285 Rocket 4.0 18:50:51 10° S 18:57:03 65° ESE 19:03:20 10° NNE
Cosmos 2026 Rocket 4.4 18:51:35 10° N 18:57:39 43° ENE 19:02:16 17° SE
Cosmos 1092 Rocket 4.1 18:51:51 10° N 18:57:54 55° ENE 19:03:59 10° SSE
MOS 1 Rocket 3.1 18:59:01 10° NNE 19:03:24 86° WNW 19:07:41 10° SSW
FREGAT/IRIS 3.8 19:04:41 23° NNE 19:04:41 23° NNE 19:06:03 10° N
TSX-5 4.1 19:04:34 10° S 19:08:14 50° ESE 19:12:54 10° NE
ARGOS 3.3 19:04:30 10° S 19:09:52 78° WSW 19:15:17 10° NNW
CZ-2C R/B 2.8 19:08:12 10° NNE 19:13:42 57° E 19:19:13 10° S
Cosmos 1340 Rocket 3.8 19:15:11 28° ENE 19:15:11 28° ENE 19:17:40 10° NNE
Cosmos 1733 3.2 19:13:48 26° SSE 19:15:41 55° E 19:19:26 10° NNE
Cosmos 2151 Rocket 4.5 19:12:09 10° SSW 19:16:30 52° WNW 19:20:56 10° N
MOS 1 4.3 19:13:05 19° SSE 19:17:17 68° ENE 19:22:57 10° N
Lacrosse 5 rocket 3.3 19:15:17 10° NW 19:18:46 22° NNE 19:20:43 17° NE
Cosmos 2082 Rocket 3.3 19:15:25 10° N 19:20:08 27° NE 19:21:17 25° ENE
BREEZE-M DEB (TANK) 3.8 19:19:31 10° W 19:22:48 48° SSW 19:27:36 22° SE
BREEZE-M R/B 3.8 19:12:45 10° WSW 19:23:13 86° NNW 19:24:25 41° ENE
DMSP B5D2-2 4.1 19:18:19 10° NNE 19:23:33 59° E 19:28:44 10° S
Cosmos 494 Rocket 4.5 19:20:01 10° NNW 19:25:12 60° WSW 19:29:53 13° S
Meteor 1-15 Rocket 4.5 19:21:33 10° SSW 19:27:11 72° WNW 19:32:58 10° N
Cosmos 1805 3.4 19:23:42 10° SSW 19:27:36 74° W 19:31:32 10° N
OBJECT-B 2.1 19:28:48 30° NNE 19:28:48 30° NNE 19:30:45 10° N
Milstar 3 Cent rocket 4.2 19:28:35 10° SW 19:31:38 13° S 19:32:39 13° S
Ariane Rocket 3.0 19:28:06 19° S 19:31:44 81° WSW 19:36:51 10° NNW
SL-08 RB Rocket 4.1 19:27:52 13° S 19:31:50 63° W 19:36:21 10° NNW
H-2A R/B 3.5 19:28:46 10° SSW 19:33:21 36° W 19:38:05 10° NNW
USA 234 4.4 19:38:13 23° SSE 19:38:13 23° SSE 19:41:20 10° S
Cosmos 1269 Rocket 4.0 19:31:51 10° NNW 19:37:12 83° WSW 19:39:33 35° SSE
Cosmos 1626 2.1 19:38:29 10° N 19:42:02 79° NW 19:42:02 79° NW
Okean 1-7 Rocket 4.2 19:38:09 10° N 19:41:50 42° NE 19:41:50 42° NE
MetOp-A 4.1 19:40:20 28° S 19:43:15 82° WSW 19:48:40 10° NNW
USA 186 3.2 19:42:34 30° SW 19:43:25 36° W 19:46:30 10° NNW
COSMOS 2406 3.1 19:40:44 10° NNW 19:46:27 81° ENE 19:47:55 52° SE
Cosmos 1844 Rocket 4.1 19:41:19 10° WSW 19:46:29 37° NW 19:51:41 10° NNE
ISS -2.2 19:44:58 10° WNW 19:47:46 30° N 19:47:46 30° N
Cosmos 2278 Rocket 2.5 19:44:51 10° S 19:51:32 47° ENE 19:55:53 10° NE
Lacrosse 4 Rocket 2.6 19:50:06 10° NNW 19:52:52 32° NNE 19:52:52 32° NNE
Meteor 1-22 Rocket 4.3 19:49:07 10° SSW 19:55:02 84° W 20:01:09 10° N
Meteor 2-5 Rocket 4.3 19:51:04 10° NNW 19:56:38 57° W 20:00:46 19° SSW
Meteor 1-24 Rocket 3.9 19:53:26 10° NNW 19:59:00 70° W 20:01:37 33° S
Cosmos 909 Rocket 4.3 19:52:40 10° NNW 19:59:02 50° NE 19:59:55 46° ENE
Okean 1 Rocket 4.4 19:56:05 10° SW 20:00:18 39° WNW 20:04:32 10° N
Cosmos 2266 Rocket 4.5 19:55:31 10° N 20:00:34 40° ENE 20:00:34 40° ENE
NOSS 3-4 (A) 3.5 19:55:43 10° SW 20:01:37 72° NW 20:08:00 10° NE
NOSS 3-4 (C) 3.5 19:55:49 10° SW 20:01:44 73° NW 20:08:06 10° NE
SL-14 R/B 3.8 19:58:15 10° NNW 20:01:55 56° W 20:01:55 56° W
Resurs 01 Rocket 2.1 20:03:26 51° NNE 20:03:26 51° NNE 20:06:54 10° N
Meteor 2-19 Rocket 4.3 19:57:06 10° N 20:03:13 68° E 20:03:47 64° ESE
Cosmos 1833 Rocket 2.5 20:05:51 10° NNW 20:11:33 87° WSW 20:11:54 79° S
Cosmos 2251 Rocket 3.8 20:09:07 10° NNW 20:13:44 56° NNE 20:13:44 56° NNE
CENTAUR R/B 4.2 20:08:44 10° NW 20:16:17 41° WSW 20:22:00 19° S
ARIANE 5 R/B 4.1 20:20:05 28° N 20:20:05 28° N 20:22:17 10° N
SPOT 3 Rocket 3.7 20:20:50 63° WSW 20:21:07 64° WSW 20:26:16 10° NNW
ATLAS 2AS CENTAUR R/B 3.3 20:16:32 10° SW 20:24:27 67° NW 20:32:18 10° NE
ATLAS 3B R/B 2.7 20:22:06 10° NW 20:28:58 76° WSW 20:29:50 67° S
Cosmos 1655 Rocket 3.9 20:31:39 10° N 20:37:50 84° WNW 20:37:50 84° WNW
Lacrosse 5 rocket 3.7 20:54:23 10° NW 20:56:20 24° NNW 20:56:20 24° NNW
Cosmos 2098 Rocket 4.5 20:55:49 10° NNW 21:01:45 53° WNW 21:01:45 53° WNW
Cosmos 2082 Rocket 3.1 20:59:05 10° NNW 21:03:08 44° WNW 21:03:08 44° WNW
Terra 4.2 21:21:45 17° N 21:21:45 17° N 21:22:55 10° N
Cosmos 2278 Rocket 4.0 21:33:01 24° W 21:34:46 28° NW 21:39:37 10° N
